Time,TemperatureF,DewpointF,PressureIn,WindDirection,WindDirectionDegrees,WindSpeedMPH,WindSpeedGustMPH,Humidity,HourlyPrecipIn,Conditions,Clouds,dailyrainin,SoftwareType,DateUTC
2013-01-23 00:03:00,9.0,-6.0,30.11,West,275,1.0,5.0,50,0.00,,,0.01,,2013-01-23 05:03:00,
2013-01-23 00:12:00,9.0,-6.0,30.11,West,275,1.0,5.0,50,0.00,,,0.01,,2013-01-23 05:12:00,
2013-01-23 00:22:00,9.0,-5.0,30.11,West,272,0.0,6.0,51,0.00,,,0.01,,2013-01-23 05:22:00,
2013-01-23 00:33:00,8.0,-7.0,30.10,WNW,303,3.0,8.0,50,0.00,,,0.01,,2013-01-23 05:33:00,
2013-01-23 00:43:00,8.0,-7.0,30.10,WNW,303,3.0,8.0,50,0.00,,,0.01,,2013-01-23 05:43:00,
2013-01-23 00:53:00,8.0,-6.0,30.10,SW,218,1.0,8.0,51,0.00,,,0.01,,2013-01-23 05:53:00,
2013-01-23 01:02:00,8.0,-6.0,30.10,NW,308,1.0,7.0,52,0.00,,,0.01,,2013-01-23 06:02:00,
2013-01-23 01:12:00,8.0,-6.0,30.10,NW,308,1.0,7.0,52,0.00,,,0.01,,2013-01-23 06:12:00,
2013-01-23 01:22:00,8.0,-6.0,30.10,SW,223,0.0,4.0,53,0.00,,,0.01,,2013-01-23 06:22:00,
2013-01-23 01:32:00,8.0,-5.0,30.11,NNW,348,1.0,8.0,54,0.00,,,0.01,,2013-01-23 06:32:00,
2013-01-23 01:43:00,8.0,-5.0,30.11,NNW,348,1.0,8.0,54,0.00,,,0.01,,2013-01-23 06:43:00,
2013-01-23 01:53:00,8.0,-6.0,30.11,WNW,296,1.0,7.0,53,0.00,,,0.01,,2013-01-23 06:53:00,
2013-01-23 02:02:00,8.0,-6.0,30.11,NNE,13,2.0,10.0,53,0.00,,,0.01,,2013-01-23 07:02:00,
2013-01-23 02:13:00,8.0,-6.0,30.11,NNE,13,2.0,10.0,53,0.00,,,0.01,,2013-01-23 07:13:00,
2013-01-23 02:23:00,8.0,-5.0,30.12,WSW,254,1.0,5.0,54,0.00,,,0.01,,2013-01-23 07:23:00,
2013-01-23 02:33:00,8.0,-5.0,30.12,WNW,284,2.0,6.0,55,0.00,,,0.01,,2013-01-23 07:33:00,
2013-01-23 02:42:00,8.0,-5.0,30.12,WNW,284,2.0,6.0,55,0.00,,,0.01,,2013-01-23 07:42:00,
2013-01-23 02:53:00,7.0,-5.0,30.12,North,360,1.0,5.0,57,0.00,,,0.01,,2013-01-23 07:53:00,
2013-01-23 03:02:00,7.0,-5.0,30.13,NW,308,3.0,8.0,56,0.00,,,0.01,,2013-01-23 08:02:00,
2013-01-23 03:13:00,7.0,-5.0,30.13,NW,308,3.0,8.0,56,0.00,,,0.01,,2013-01-23 08:13:00,
2013-01-23 03:23:00,7.0,-5.0,30.13,NW,304,0.0,6.0,58,0.00,,,0.01,,2013-01-23 08:23:00,
2013-01-23 03:33:00,7.0,-5.0,30.13,WNW,297,1.0,8.0,58,0.00,,,0.01,,2013-01-23 08:33:00,
2013-01-23 03:43:00,7.0,-5.0,30.13,WNW,297,1.0,8.0,58,0.00,,,0.01,,2013-01-23 08:43:00,
2013-01-23 03:53:00,7.0,-4.0,30.13,NNW,333,0.0,4.0,60,0.00,,,0.01,,2013-01-23 08:53:00,
2013-01-23 04:03:00,7.0,-4.0,30.14,NW,306,1.0,4.0,60,0.00,,,0.01,,2013-01-23 09:03:00,
2013-01-23 04:12:00,7.0,-4.0,30.14,NW,306,1.0,4.0,60,0.00,,,0.01,,2013-01-23 09:12:00,
2013-01-23 04:22:00,7.0,-4.0,30.13,West,265,1.0,5.0,61,0.00,,,0.01,,2013-01-23 09:22:00,
2013-01-23 04:33:00,7.0,-3.0,30.13,WNW,289,0.0,4.0,62,0.00,,,0.01,,2013-01-23 09:33:00,
2013-01-23 04:43:00,7.0,-3.0,30.13,WNW,289,0.0,4.0,62,0.00,,,0.01,,2013-01-23 09:43:00,
2013-01-23 04:53:00,7.0,-3.0,30.13,West,259,1.0,3.0,62,0.00,,,0.01,,2013-01-23 09:53:00,
2013-01-23 05:03:00,7.0,-3.0,30.13,North,360,1.0,5.0,62,0.00,,,0.01,,2013-01-23 10:03:00,
2013-01-23 05:12:00,7.0,-3.0,30.13,North,360,1.0,5.0,62,0.00,,,0.01,,2013-01-23 10:12:00,
2013-01-23 05:23:00,7.0,-3.0,30.13,WNW,299,1.0,6.0,62,0.00,,,0.01,,2013-01-23 10:23:00,
2013-01-23 05:33:00,7.0,-3.0,30.14,West,263,1.0,4.0,62,0.00,,,0.01,,2013-01-23 10:33:00,
2013-01-23 05:43:00,7.0,-3.0,30.14,West,263,1.0,4.0,62,0.00,,,0.01,,2013-01-23 10:43:00,
2013-01-23 05:53:00,6.0,-4.0,30.14,West,261,1.0,5.0,62,0.00,,,0.01,,2013-01-23 10:53:00,
2013-01-23 06:03:00,7.0,-3.0,30.13,WNW,300,0.0,7.0,63,0.00,,,0.01,,2013-01-23 11:03:00,
2013-01-23 06:12:00,7.0,-3.0,30.13,WNW,300,0.0,7.0,63,0.00,,,0.01,,2013-01-23 11:12:00,
2013-01-23 06:23:00,6.0,-4.0,30.14,WNW,291,1.0,4.0,63,0.00,,,0.01,,2013-01-23 11:23:00,
2013-01-23 06:33:00,6.0,-4.0,30.14,WSW,253,1.0,5.0,64,0.00,,,0.01,,2013-01-23 11:33:00,
2013-01-23 06:43:00,6.0,-4.0,30.14,WSW,253,1.0,5.0,64,0.00,,,0.01,,2013-01-23 11:43:00,
2013-01-23 06:53:00,6.0,-4.0,30.14,SSW,193,2.0,5.0,64,0.00,,,0.01,,2013-01-23 11:53:00,
2013-01-23 07:03:00,6.0,-4.0,30.14,South,176,1.0,4.0,63,0.00,,,0.01,,2013-01-23 12:03:00,
2013-01-23 07:13:00,6.0,-4.0,30.14,South,176,1.0,4.0,63,0.00,,,0.01,,2013-01-23 12:13:00,
2013-01-23 07:22:00,6.0,-4.0,30.14,WNW,298,1.0,3.0,64,0.00,,,0.01,,2013-01-23 12:22:00,
2013-01-23 07:33:00,6.0,-4.0,30.15,NW,326,0.0,3.0,63,0.00,,,0.01,,2013-01-23 12:33:00,
2013-01-23 07:43:00,6.0,-4.0,30.15,NW,326,0.0,3.0,63,0.00,,,0.01,,2013-01-23 12:43:00,
2013-01-23 07:53:00,6.0,-4.0,30.15,WNW,284,0.0,5.0,64,0.00,,,0.01,,2013-01-23 12:53:00,
2013-01-23 08:04:00,6.0,-3.0,30.15,NW,306,1.0,6.0,65,0.00,,,0.01,,2013-01-23 13:04:00,
2013-01-23 08:13:00,6.0,-3.0,30.15,NW,306,1.0,6.0,65,0.00,,,0.01,,2013-01-23 13:13:00,
2013-01-23 08:23:00,6.0,-3.0,30.15,WNW,290,0.0,3.0,65,0.00,,,0.01,,2013-01-23 13:23:00,
2013-01-23 08:33:00,7.0,-3.0,30.15,WNW,298,0.0,7.0,64,0.00,,,0.01,,2013-01-23 13:33:00,
2013-01-23 08:42:00,7.0,-3.0,30.15,WNW,298,0.0,7.0,64,0.00,,,0.01,,2013-01-23 13:42:00,
2013-01-23 08:53:00,9.0,-2.0,30.16,WNW,291,2.0,8.0,61,0.00,,,0.01,,2013-01-23 13:53:00,
2013-01-23 09:03:00,10.0,-1.0,30.16,SSW,209,1.0,6.0,59,0.00,,,0.01,,2013-01-23 14:03:00,
2013-01-23 09:12:00,10.0,-1.0,30.16,SSW,209,1.0,6.0,59,0.00,,,0.01,,2013-01-23 14:12:00,
2013-01-23 09:23:00,10.0,-2.0,30.16,NW,308,1.0,7.0,58,0.00,,,0.01,,2013-01-23 14:23:00,
2013-01-23 09:33:00,11.0,-2.0,30.16,NNW,339,1.0,6.0,55,0.00,,,0.01,,2013-01-23 14:33:00,
2013-01-23 09:43:00,11.0,-2.0,30.16,NNW,339,1.0,6.0,55,0.00,,,0.01,,2013-01-23 14:43:00,
2013-01-23 09:53:00,12.0,-2.0,30.16,NNW,331,3.0,8.0,52,0.00,,,0.01,,2013-01-23 14:53:00,
2013-01-23 10:03:00,13.0,-3.0,30.17,NW,321,2.0,8.0,49,0.00,,,0.01,,2013-01-23 15:03:00,
2013-01-23 10:13:00,13.0,-3.0,30.17,NW,321,2.0,8.0,49,0.00,,,0.01,,2013-01-23 15:13:00,
2013-01-23 10:23:00,15.0,-1.0,30.17,NW,320,3.0,6.0,48,0.00,,,0.01,,2013-01-23 15:23:00,
2013-01-23 10:33:00,15.0,-1.0,30.17,WNW,292,2.0,10.0,48,0.00,,,0.01,,2013-01-23 15:33:00,
2013-01-23 10:43:00,15.0,-1.0,30.17,WNW,292,2.0,10.0,48,0.00,,,0.01,,2013-01-23 15:43:00,
2013-01-23 10:53:00,17.0,0.0,30.16,WSW,237,1.0,9.0,46,0.00,,,0.01,,2013-01-23 15:53:00,
2013-01-23 11:03:00,17.0,-2.0,30.16,WSW,254,3.0,12.0,42,0.00,,,0.01,,2013-01-23 16:03:00,
2013-01-23 11:12:00,17.0,-2.0,30.16,WSW,254,3.0,12.0,42,0.00,,,0.01,,2013-01-23 16:12:00,
2013-01-23 11:23:00,17.0,-2.0,30.16,WNW,296,2.0,9.0,43,0.00,,,0.00,,2013-01-23 16:23:00,
2013-01-23 11:33:00,17.0,-1.0,30.15,NNW,333,2.0,7.0,44,0.00,,,0.00,,2013-01-23 16:33:00,
2013-01-23 11:42:00,17.0,-1.0,30.15,NNW,333,2.0,7.0,44,0.00,,,0.00,,2013-01-23 16:42:00,
2013-01-23 11:53:00,18.0,0.0,30.14,NNW,342,2.0,7.0,45,0.00,,,0.00,,2013-01-23 16:53:00,
2013-01-23 12:03:00,19.0,0.0,30.14,NW,324,2.0,8.0,42,0.00,,,0.00,,2013-01-23 17:03:00,
2013-01-23 12:12:00,19.0,0.0,30.14,NW,324,2.0,8.0,42,0.00,,,0.00,,2013-01-23 17:12:00,
2013-01-23 12:23:00,19.0,-1.0,30.13,West,281,3.0,10.0,41,0.00,,,0.00,,2013-01-23 17:23:00,
2013-01-23 12:33:00,18.0,-2.0,30.12,NW,308,4.0,10.0,41,0.00,,,0.00,,2013-01-23 17:33:00,
2013-01-23 12:42:00,18.0,-2.0,30.12,NW,308,4.0,10.0,41,0.00,,,0.00,,2013-01-23 17:42:00,
2013-01-23 12:53:00,17.0,-2.0,30.11,WNW,302,3.0,10.0,42,0.00,,,0.00,,2013-01-23 17:53:00,
2013-01-23 13:03:00,18.0,-2.0,30.11,NNW,333,3.0,10.0,40,0.00,,,0.00,,2013-01-23 18:03:00,
2013-01-23 13:12:00,18.0,-2.0,30.11,NNW,333,3.0,10.0,40,0.00,,,0.00,,2013-01-23 18:12:00,
2013-01-23 13:23:00,18.0,-2.0,30.11,NW,304,2.0,8.0,41,0.00,,,0.00,,2013-01-23 18:23:00,
2013-01-23 13:33:00,18.0,-2.0,30.11,NW,304,2.0,8.0,41,0.00,,,0.00,,2013-01-23 18:33:00,
2013-01-23 13:43:00,18.0,-1.0,30.10,South,173,3.0,8.0,43,0.00,,,0.00,,2013-01-23 18:43:00,
2013-01-23 13:53:00,17.0,-1.0,30.11,NNW,344,2.0,8.0,45,0.00,,,0.00,,2013-01-23 18:53:00,
2013-01-23 14:03:00,16.0,-1.0,30.10,NNW,327,2.0,8.0,47,0.00,,,0.00,,2013-01-23 19:03:00,
2013-01-23 14:13:00,16.0,-1.0,30.10,NNW,327,2.0,8.0,47,0.00,,,0.00,,2013-01-23 19:13:00,
2013-01-23 14:23:00,16.0,0.0,30.10,North,360,2.0,9.0,49,0.00,,,0.00,,2013-01-23 19:23:00,
2013-01-23 14:33:00,16.0,0.0,30.10,NNW,329,1.0,7.0,49,0.00,,,0.00,,2013-01-23 19:33:00,
2013-01-23 14:43:00,16.0,0.0,30.10,NNW,329,1.0,7.0,49,0.00,,,0.00,,2013-01-23 19:43:00,
2013-01-23 14:53:00,15.0,-1.0,30.10,NNW,333,1.0,5.0,48,0.00,,,0.00,,2013-01-23 19:53:00,
2013-01-23 15:03:00,16.0,-1.0,30.10,West,280,1.0,6.0,47,0.00,,,0.00,,2013-01-23 20:03:00,
2013-01-23 15:13:00,16.0,-1.0,30.10,West,280,1.0,6.0,47,0.00,,,0.00,,2013-01-23 20:13:00,
2013-01-23 15:23:00,16.0,-2.0,30.10,NW,318,4.0,7.0,44,0.00,,,0.00,,2013-01-23 20:23:00,
2013-01-23 15:33:00,16.0,-2.0,30.10,NW,322,2.0,7.0,43,0.00,,,0.00,,2013-01-23 20:33:00,
2013-01-23 15:43:00,16.0,-2.0,30.10,NW,322,2.0,7.0,43,0.00,,,0.00,,2013-01-23 20:43:00,
2013-01-23 15:54:00,17.0,-2.0,30.10,NW,306,3.0,8.0,42,0.00,,,0.00,,2013-01-23 20:54:00,
2013-01-23 16:03:00,15.0,-4.0,30.10,NW,304,2.0,10.0,42,0.00,,,0.00,,2013-01-23 21:03:00,
2013-01-23 16:12:00,15.0,-4.0,30.10,NW,304,2.0,10.0,42,0.00,,,0.00,,2013-01-23 21:12:00,
2013-01-23 16:23:00,15.0,-3.0,30.10,West,279,2.0,7.0,44,0.00,,,0.00,,2013-01-23 21:23:00,
2013-01-23 16:33:00,15.0,-3.0,30.11,NW,315,3.0,7.0,44,0.00,,,0.00,,2013-01-23 21:33:00,
2013-01-23 16:43:00,15.0,-3.0,30.11,NW,315,3.0,7.0,44,0.00,,,0.00,,2013-01-23 21:43:00,
2013-01-23 16:53:00,15.0,-2.0,30.11,WNW,303,3.0,7.0,45,0.00,,,0.00,,2013-01-23 21:53:00,
2013-01-23 17:03:00,14.0,-4.0,30.11,WNW,294,3.0,7.0,44,0.00,,,0.00,,2013-01-23 22:03:00,
2013-01-23 17:12:00,14.0,-4.0,30.11,WNW,294,3.0,7.0,44,0.00,,,0.00,,2013-01-23 22:12:00,
2013-01-23 17:23:00,14.0,-4.0,30.11,WNW,302,0.0,5.0,44,0.00,,,0.00,,2013-01-23 22:23:00,
2013-01-23 17:33:00,13.0,-3.0,30.11,NW,325,0.0,2.0,47,0.00,,,0.00,,2013-01-23 22:33:00,
2013-01-23 17:42:00,13.0,-3.0,30.11,NW,325,0.0,2.0,47,0.00,,,0.00,,2013-01-23 22:42:00,
2013-01-23 17:53:00,13.0,-3.0,30.12,WNW,298,1.0,6.0,47,0.00,,,0.00,,2013-01-23 22:53:00,
2013-01-23 18:03:00,13.0,-3.0,30.12,WNW,302,1.0,3.0,48,0.00,,,0.00,,2013-01-23 23:03:00,
2013-01-23 18:13:00,13.0,-3.0,30.12,WNW,302,1.0,3.0,48,0.00,,,0.00,,2013-01-23 23:13:00,
2013-01-23 18:23:00,12.0,-3.0,30.13,SSE,165,1.0,4.0,49,0.00,,,0.00,,2013-01-23 23:23:00,
2013-01-23 18:33:00,12.0,-3.0,30.13,NW,304,0.0,1.0,49,0.00,,,0.00,,2013-01-23 23:33:00,
2013-01-23 18:43:00,12.0,-3.0,30.13,NW,304,0.0,1.0,49,0.00,,,0.00,,2013-01-23 23:43:00,
2013-01-23 18:53:00,12.0,-3.0,30.14,WNW,294,1.0,4.0,51,0.00,,,0.00,,2013-01-23 23:53:00,
2013-01-23 19:03:00,12.0,-2.0,30.14,WNW,298,1.0,6.0,52,0.00,,,0.00,,2013-01-24 00:03:00,
2013-01-23 19:12:00,12.0,-2.0,30.14,WNW,298,1.0,6.0,52,0.00,,,0.00,,2013-01-24 00:12:00,
2013-01-23 19:22:00,12.0,-3.0,30.14,NW,319,1.0,6.0,50,0.00,,,0.00,,2013-01-24 00:22:00,
2013-01-23 19:32:00,11.0,-4.0,30.14,NW,322,2.0,4.0,50,0.00,,,0.00,,2013-01-24 00:32:00,
2013-01-23 19:43:00,11.0,-4.0,30.14,NW,322,2.0,4.0,50,0.00,,,0.00,,2013-01-24 00:43:00,
2013-01-23 19:53:00,11.0,-4.0,30.14,NE,47,0.0,3.0,50,0.00,,,0.00,,2013-01-24 00:53:00,
2013-01-23 20:03:00,11.0,-4.0,30.14,NW,321,0.0,4.0,50,0.00,,,0.00,,2013-01-24 01:03:00,
2013-01-23 20:12:00,11.0,-4.0,30.14,NW,321,0.0,4.0,50,0.00,,,0.00,,2013-01-24 01:12:00,
2013-01-23 20:23:00,10.0,-4.0,30.14,NNW,344,0.0,2.0,52,0.00,,,0.00,,2013-01-24 01:23:00,
2013-01-23 20:33:00,10.0,-4.0,30.14,NNW,344,0.0,2.0,53,0.00,,,0.00,,2013-01-24 01:33:00,
2013-01-23 20:42:00,10.0,-4.0,30.14,NNW,344,0.0,2.0,53,0.00,,,0.00,,2013-01-24 01:42:00,
2013-01-23 20:53:00,9.0,-4.0,30.14,NNW,344,0.0,1.0,55,0.00,,,0.00,,2013-01-24 01:53:00,
2013-01-23 21:02:00,9.0,-3.0,30.14,NNW,344,0.0,0.0,57,0.00,,,0.00,,2013-01-24 02:02:00,
2013-01-23 21:12:00,9.0,-3.0,30.14,NNW,344,0.0,0.0,57,0.00,,,0.00,,2013-01-24 02:12:00,
2013-01-23 21:22:00,8.0,-3.0,30.14,NNW,344,0.0,0.0,59,0.00,,,0.00,,2013-01-24 02:22:00,
2013-01-23 21:33:00,8.0,-3.0,30.14,NNW,344,0.0,0.0,60,0.00,,,0.00,,2013-01-24 02:33:00,
2013-01-23 21:42:00,8.0,-3.0,30.14,NNW,344,0.0,0.0,60,0.00,,,0.00,,2013-01-24 02:42:00,
2013-01-23 21:52:00,8.0,-3.0,30.14,NNW,344,0.0,0.0,60,0.00,,,0.00,,2013-01-24 02:52:00,
2013-01-23 22:03:00,7.0,-3.0,30.14,NNW,344,0.0,1.0,62,0.00,,,0.00,,2013-01-24 03:03:00,
2013-01-23 22:12:00,7.0,-3.0,30.14,NNW,344,0.0,1.0,62,0.00,,,0.00,,2013-01-24 03:12:00,
2013-01-23 22:22:00,7.0,-4.0,30.14,NNW,344,0.0,1.0,61,0.00,,,0.00,,2013-01-24 03:22:00,
2013-01-23 22:33:00,7.0,-4.0,30.14,North,9,0.0,1.0,61,0.00,,,0.00,,2013-01-24 03:33:00,
2013-01-23 22:43:00,7.0,-4.0,30.14,North,9,0.0,1.0,61,0.00,,,0.00,,2013-01-24 03:43:00,
2013-01-23 22:53:00,7.0,-4.0,30.14,North,5,0.0,1.0,60,0.00,,,0.00,,2013-01-24 03:53:00,
2013-01-23 23:02:00,7.0,-4.0,30.14,North,5,0.0,0.0,61,0.00,,,0.00,,2013-01-24 04:02:00,
2013-01-23 23:12:00,7.0,-4.0,30.14,North,5,0.0,0.0,61,0.00,,,0.00,,2013-01-24 04:12:00,
2013-01-23 23:22:00,6.0,-4.0,30.14,North,5,0.0,0.0,62,0.00,,,0.00,,2013-01-24 04:22:00,
2013-01-23 23:33:00,5.0,-4.0,30.14,North,5,0.0,0.0,64,0.00,,,0.00,,2013-01-24 04:33:00,
2013-01-23 23:42:00,5.0,-4.0,30.14,North,5,0.0,0.0,64,0.00,,,0.00,,2013-01-24 04:42:00,
2013-01-23 23:53:00,5.0,-4.0,30.14,North,360,0.0,0.0,65,0.00,,,0.00,,2013-01-24 04:53:00,